White Plains, CT

9:43 AM EDT on April 24, 2018 (GMT -0400)
Westchester County

Weather History for KHPN - August, 2013

Change the Weather History Date:

Friday, August 30, 2013

  Actual Average Record
Temperature  
Mean Temperature 74 °F -  
Max Temperature 82 °F 76 °F 90 °F (1991)
Min Temperature 66 °F 59 °F 47 °F (1976)
Cooling Degree Days 9    
Growing Degree Days 24 (Base 50)    
Moisture  
Dew Point 65 °F    
Average Humidity 75    
Maximum Humidity 94    
Minimum Humidity 52    
Precipitation  
Precipitation 0.00 in - - ()
Sea Level Pressure  
Sea Level Pressure 29.94 in    
Wind  
Wind Speed 3 mph (SW)    
Max Wind Speed 9 mph    
Max Gust Speed 16 mph    
Visibility 9 miles    
Events      
Averages and records for this station are not official NWS values.
T = Trace of Precipitation, MM = Missing Value Source: NWS Daily Summary

Daily Weather History Graph

Daily Weather History Graph

Search for Another Location

Airport or City:

Astronomy

Aug. 30, 2013 Rise Set
Actual Time 6:19 AM EDT 7:30 PM EDT
Civil Twilight 5:51 AM EDT 7:58 PM EDT
Nautical Twilight 5:17 AM EDT 8:32 PM EDT
Astronomical Twilight 4:41 AM EDT 9:07 PM EDT
Moon 12:54 AM EDT (8/30) 3:45 PM EDT (8/30)
Length of Visible Light 14h 07m
Length of Day
13h 10m
Waning Crescent, 29% of the Moon is Illuminated
Aug 30
Waning Crescent
Sep 5
New
Sep 12
First Quarter
Sep 19
Full
Sep 26
Last Quarter

Hourly Weather History & Observations

Time (EDT) Temp. Heat Index Dew Point Humidity Pressure Visibility Wind Dir Wind Speed Gust Speed Precip Events Conditions
12:56 AM 68.0 °F - 63.0 °F 84% 30.03 in 10.0 mi Calm Calm - N/A   Overcast
1:56 AM 66.9 °F - 63.0 °F 87% 30.01 in 10.0 mi ESE 6.9 mph - N/A   Overcast
2:56 AM 66.9 °F - 63.0 °F 87% 30.00 in 10.0 mi SE 4.6 mph - N/A   Overcast
3:56 AM 66.0 °F - 63.0 °F 90% 30.00 in 8.0 mi Calm Calm - N/A   Overcast
4:53 AM 66.2 °F - 62.6 °F 88% 30.00 in 5.0 mi Calm Calm - N/A   Overcast
4:56 AM 66.0 °F - 63.0 °F 90% 29.99 in 5.0 mi South 3.5 mph - N/A   Overcast
5:56 AM 66.9 °F - 63.0 °F 87% 29.99 in 8.0 mi Calm Calm - N/A   Overcast
6:28 AM 66.2 °F - 64.4 °F 94% 30.01 in 8.0 mi South 3.5 mph - N/A   Overcast
6:56 AM 66.9 °F - 64.0 °F 90% 30.00 in 8.0 mi Calm Calm - N/A   Overcast
7:56 AM 68.0 °F - 64.0 °F 87% 30.00 in 8.0 mi South 3.5 mph - N/A   Overcast
8:56 AM 70.0 °F - 64.9 °F 84% 30.00 in 9.0 mi Calm Calm - N/A   Overcast
9:56 AM 71.1 °F - 64.9 °F 81% 29.99 in 9.0 mi WSW 4.6 mph - N/A   Mostly Cloudy
10:56 AM 73.0 °F - 64.9 °F 76% 29.97 in 10.0 mi WSW 5.8 mph - N/A   Mostly Cloudy
11:56 AM 75.9 °F - 66.0 °F 71% 29.96 in 10.0 mi Variable 4.6 mph - N/A   Mostly Cloudy
12:56 PM 79.0 °F - 64.9 °F 62% 29.93 in 10.0 mi WNW 8.1 mph - N/A   Mostly Cloudy
1:03 PM 78.8 °F - 64.4 °F 61% 29.95 in 10.0 mi West 8.1 mph 16.1 mph N/A   Scattered Clouds
1:56 PM 81.0 °F 82.5 °F 64.0 °F 56% 29.91 in 10.0 mi West 9.2 mph - N/A   Partly Cloudy
2:56 PM 81.0 °F 82.2 °F 63.0 °F 54% 29.90 in 10.0 mi SW 8.1 mph - N/A   Scattered Clouds
3:56 PM 82.0 °F 83.4 °F 64.0 °F 54% 29.88 in 10.0 mi WSW 5.8 mph - N/A   Clear
4:56 PM 82.0 °F 83.1 °F 63.0 °F 52% 29.88 in 10.0 mi West 6.9 mph - N/A   Partly Cloudy
5:56 PM 81.0 °F 82.5 °F 64.0 °F 56% 29.86 in 10.0 mi West 5.8 mph - N/A   Clear
6:56 PM 77.0 °F - 66.0 °F 69% 29.85 in 9.0 mi Calm Calm - N/A   Clear
7:56 PM 78.1 °F - 64.9 °F 64% 29.86 in 10.0 mi Calm Calm - N/A   Clear
8:56 PM 75.9 °F - 66.0 °F 71% 29.86 in 8.0 mi Calm Calm - N/A   Clear
9:56 PM 75.0 °F - 66.9 °F 76% 29.87 in 8.0 mi West 5.8 mph - N/A   Clear
10:56 PM 75.0 °F - 68.0 °F 79% 29.87 in 7.0 mi Calm Calm - N/A   Clear
11:56 PM 75.0 °F - 69.1 °F 82% 29.86 in 7.0 mi South 3.5 mph - N/A   Partly Cloudy